User: anonymous   Login
Location: Aiyekoto
(8.4333°N, 4.3667°E)
Time: 12:27:01
(UTC+00:00)
Language:

Cosmos 1934 Rocket - Orbit

View from above orbital plane
View from above orbital plane
View from above satellite
View from above satellite

Ground track
Ground track

The orbit data is extracted from the following two-line orbital elements,

1 18986U 88023B   20218.54335892 -.00000004 +00000-0 -18614-4 0  9995
2 18986 082.9529 271.5368 0040549 241.6082 118.0986 13.78651527628178
Epoch (UTC): 05 August 2020 13:02:26
Eccentricity: 0.0040549
inclination: 82.9529°
perigee height: 939 km
apogee height: 998 km
right ascension of ascending node: 271.5368°
argument of perigee: 241.6082°
revolutions per day: 13.78651527
mean anomaly at epoch: 118.0986°
orbit number at epoch: 62817

The dashed part of the orbit path shows where the satellite is in the earth's shadow,  

DLR